Location: Unspecified
(35.6961°N, 0.0000°E)
Time: 02:46:55
(UTC+00:00)

S-56A Canister/Altair - Pass Details

Date: 02 October 2020
Orbit: 632 x 2500 km, 38.9° (Epoch: 20 October)

Event Time Altitude Azimuth Distance (km) Brightness Sun altitude
Rises 21:29:07 0° 282° (WNW) 5,459 12.5 -44.8°
Reaches altitude 10° 21:35:48 10° 259° (WSW) 3,986 11.5 -45.9°
Maximum altitude 21:39:33 13° 237° (WSW) 3,482 10.9 -46.5°
Enters shadow 21:40:06 12° 233° (SW) 3,442 10.9 -46.6°
